Location: Croissy-Beaubourg
(48.8283°N, 2.6696°E)
Time: 02:40:27
(UTC+00:00)

Cosmos 2082 - Pass Details

Date: 25 August 2022
Orbit: 832 x 856 km, 71.0° (Epoch: 29 September)

Event Time Altitude Azimuth Distance (km) Brightness Sun altitude
Rises 23:41:28 0° 335° (NNW) 3,411 7.8 -30.6°
Reaches altitude 10° 23:44:40 10° 353° (N) 2,477 7.0 -30.7°
Maximum altitude 23:48:42 19° 39° (NE) 1,898 6.0 -30.7°
Drops below altitude 10° 23:52:44 10° 84° (E) 2,481 6.2 -30.7°
Enters shadow 23:53:27 - 89° (E) 2,670 6.3 -30.7°
